Flag for Brazil Weather past 2 weeks in São Paulo, São Paulo, Brazil

68 °F

Low clouds.

Feels Like: 68 °F
Forecast: 65 / 72 °F
Wind: 8 mph from Southeast

Location: Sao Paulo Airport

Current Time: Nov 29, 2015 at 11:30:22 PM

Latest Report: Nov 29, 2015 at 11:00 PM

Visibility: 4 mi

Pressure: 30.12 "Hg (27.55 "Hg at 765m altitude)

Humidity: 88%

Dew point: 64 °F

Location of São PauloLocation

Historic Weather in São Paulo — Graph


São Paulo temperature yesterday

Maximum temperature yesterday: 86 °F (at 4:00 PM)
Minimum temperature yesterday: 34 °F (at 11:00 PM)
Average temperature yesterday: 73 °F

Past Weeks' High & Low Weather Summary

High88 °F (Nov 19, 3:00 PM)100% (Nov 23, 5:00 PM)30.12 "Hg (Nov 23, 5:00 PM)
Low34 °F (Nov 23, 5:00 PM)25% (Nov 23, 12:00 PM)29.74 "Hg (Nov 19, 5:00 PM)
Average71 °F77%29.95 "Hg
* Reported Nov 14 10:00 PM — Nov 29 10:00 PM, São Paulo, Weather by CustomWeather, © 2015

Note: Actual official high and low records may vary slightly from our data, if they occured in-between our weather recording intervals... More about our weather records


São Paulo weather history for previous 24 hours

Time TempWeatherWind HumidityBarometerVisibility
10:00 PM
Sun, Nov 29
68 °FLight rain. Mostly cloudy.6 mph88%30.09 "HgN/A
9:00 PM68 °FLight rain. Mostly cloudy.10 mph88%30.09 "Hg4 mi
8:00 PM68 °FMostly cloudy.10 mph88%30.07 "HgN/A
7:00 PM70 °FMore clouds than sun.10 mph88%30.04 "HgN/A
6:00 PM70 °FLow clouds.10 mph88%30.01 "HgN/A
5:00 PM72 °FLight rain. Mostly cloudy.10 mph83%30.01 "HgN/A
4:00 PM70 °FLight rain. Partly sunny.9 mph88%30.01 "HgN/A
3:00 PM70 °FLight rain. Partly sunny.13 mph88%30.04 "HgN/A
2:00 PM70 °FRain. Broken clouds.14 mph88%N/A6 mi
1:00 PM70 °FLight rain. Broken clouds.5 mph94%30.04 "HgN/A
12:00 PM81 °FBroken clouds.8 mph62%30.04 "HgN/A
11:00 AM77 °FPartly sunny.8 mph69%30.04 "HgN/A
10:00 AM75 °FPartly sunny.8 mph74%30.04 "HgN/A
9:00 AM75 °FSunny.3 mph74%30.01 "Hg10 mi
8:00 AM72 °FSunny.5 mph83%30.01 "Hg10 mi
7:00 AM70 °FSunny.5 mph83%29.98 "Hg10 mi
6:00 AM70 °FClear.6 mph83%29.95 "Hg10 mi
5:00 AM70 °FPassing clouds.6 mph83%29.95 "HgN/A
4:00 AM70 °FPassing clouds.5 mph88%29.95 "HgN/A
3:00 AM70 °FPassing clouds.5 mph88%29.98 "Hg4 mi
2:00 AM70 °FPassing clouds.6 mph88%29.98 "HgN/A
1:00 AM70 °FRain. Passing clouds.5 mph88%30.01 "Hg6 mi
12:00 AM70 °FLight rain. Overcast.6 mph88%30.01 "HgN/A
11:03 PM
Sat, Nov 28
70 °FThunderstorms. Passing clouds.3 mph83%30.04 "HgN/A
11:00 PM34 °FThunderstorms. Passing clouds.8 mph100%30.04 "Hg5 mi
Weather by CustomWeather, © 2015

See weather overviewHow to use our weather pages